Time,TemperatureF,DewpointF,PressureIn,WindDirection,WindDirectionDegrees,WindSpeedMPH,WindSpeedGustMPH,Humidity,HourlyPrecipIn,Conditions,Clouds,dailyrainin,SoftwareType,DateUTC
2013-01-26 00:03:00,11.0,8.0,30.08,WSW,252,0.0,0.0,88,0.00,,,0.00,weatherlink.com 1.10,2013-01-26 05:03:00,
2013-01-26 00:18:00,10.7,8.0,30.08,WSW,252,0.0,0.0,88,0.00,,,0.00,weatherlink.com 1.10,2013-01-26 05:18:00,
2013-01-26 00:33:00,10.5,8.0,30.08,WSW,252,0.0,0.0,88,0.00,,,0.00,weatherlink.com 1.10,2013-01-26 05:33:00,
2013-01-26 00:48:00,10.4,8.0,30.08,WSW,252,0.0,0.0,88,0.00,,,0.00,weatherlink.com 1.10,2013-01-26 05:48:00,
2013-01-26 01:03:00,10.3,8.0,30.08,WSW,252,0.0,0.0,88,0.00,,,0.00,weatherlink.com 1.10,2013-01-26 06:03:00,
2013-01-26 01:18:00,10.0,7.0,30.08,WSW,252,0.0,0.0,88,0.00,,,0.00,weatherlink.com 1.10,2013-01-26 06:18:00,
2013-01-26 01:33:00,9.9,7.0,30.08,WSW,252,0.0,0.0,88,0.00,,,0.00,weatherlink.com 1.10,2013-01-26 06:33:00,
2013-01-26 01:48:00,9.9,7.0,30.07,WSW,252,0.0,0.0,88,0.00,,,0.00,weatherlink.com 1.10,2013-01-26 06:48:00,
2013-01-26 02:03:00,9.7,7.0,30.07,WSW,252,0.0,0.0,88,0.00,,,0.00,weatherlink.com 1.10,2013-01-26 07:03:00,
2013-01-26 02:18:00,9.5,7.0,30.06,WSW,252,0.0,0.0,88,0.00,,,0.00,weatherlink.com 1.10,2013-01-26 07:18:00,
2013-01-26 02:33:00,9.0,6.0,30.06,WSW,252,0.0,0.0,87,0.00,,,0.00,weatherlink.com 1.10,2013-01-26 07:33:00,
2013-01-26 02:48:00,9.4,7.0,30.06,WSW,252,0.0,0.0,88,0.00,,,0.00,weatherlink.com 1.10,2013-01-26 07:48:00,
2013-01-26 03:03:00,9.3,7.0,30.07,WSW,252,0.0,0.0,88,0.00,,,0.00,weatherlink.com 1.10,2013-01-26 08:03:00,
2013-01-26 03:18:00,9.0,6.0,30.06,WSW,252,0.0,1.0,87,0.00,,,0.00,weatherlink.com 1.10,2013-01-26 08:18:00,
2013-01-26 03:33:00,8.2,5.0,30.07,WNW,303,0.0,0.0,87,0.00,,,0.00,weatherlink.com 1.10,2013-01-26 08:33:00,
2013-01-26 03:48:00,7.7,5.0,30.07,North,349,1.0,5.0,87,0.00,,,0.00,weatherlink.com 1.10,2013-01-26 08:48:00,
2013-01-26 04:03:00,9.4,7.0,30.07,NNW,333,2.0,4.0,88,0.00,,,0.00,weatherlink.com 1.10,2013-01-26 09:03:00,
2013-01-26 04:18:00,10.4,8.0,30.08,NW,314,1.0,3.0,88,0.00,,,0.00,weatherlink.com 1.10,2013-01-26 09:18:00,
2013-01-26 04:33:00,10.4,8.0,30.09,NW,325,0.0,4.0,88,0.00,,,0.00,weatherlink.com 1.10,2013-01-26 09:33:00,
2013-01-26 04:48:00,10.5,8.0,30.09,North,9,2.0,3.0,88,0.00,,,0.00,weatherlink.com 1.10,2013-01-26 09:48:00,
2013-01-26 05:03:00,10.7,8.0,30.09,NNW,342,0.0,2.0,87,0.00,,,0.00,weatherlink.com 1.10,2013-01-26 10:03:00,
2013-01-26 05:18:00,10.9,8.0,30.09,North,360,0.0,1.0,87,0.00,,,0.00,weatherlink.com 1.10,2013-01-26 10:18:00,
2013-01-26 05:33:00,11.2,8.0,30.10,North,360,0.0,1.0,87,0.00,,,0.00,weatherlink.com 1.10,2013-01-26 10:33:00,
2013-01-26 05:48:00,11.7,9.0,30.10,North,360,1.0,1.0,87,0.00,,,0.00,weatherlink.com 1.10,2013-01-26 10:48:00,
2013-01-26 06:03:00,11.9,9.0,30.10,North,360,0.0,1.0,87,0.00,,,0.00,weatherlink.com 1.10,2013-01-26 11:03:00,
2013-01-26 06:18:00,12.0,9.0,30.11,North,360,0.0,1.0,87,0.00,,,0.00,weatherlink.com 1.10,2013-01-26 11:18:00,
2013-01-26 06:33:00,12.0,9.0,30.12,North,360,0.0,1.0,87,0.00,,,0.00,weatherlink.com 1.10,2013-01-26 11:33:00,
2013-01-26 06:48:00,12.1,9.0,30.13,North,360,0.0,1.0,87,0.00,,,0.00,weatherlink.com 1.10,2013-01-26 11:48:00,
2013-01-26 07:03:00,12.0,9.0,30.13,North,360,0.0,0.0,87,0.00,,,0.00,weatherlink.com 1.10,2013-01-26 12:03:00,
2013-01-26 07:19:00,12.1,9.0,30.14,North,355,0.0,2.0,87,0.00,,,0.00,weatherlink.com 1.10,2013-01-26 12:19:00,
2013-01-26 07:34:00,12.0,9.0,30.14,North,355,0.0,1.0,86,0.00,,,0.00,weatherlink.com 1.10,2013-01-26 12:34:00,
2013-01-26 07:49:00,12.1,9.0,30.15,North,355,0.0,0.0,86,0.00,,,0.00,weatherlink.com 1.10,2013-01-26 12:49:00,
2013-01-26 08:04:00,12.4,9.0,30.16,WSW,246,1.0,3.0,87,0.00,,,0.00,weatherlink.com 1.10,2013-01-26 13:04:00,
2013-01-26 08:19:00,12.9,10.0,30.16,WSW,246,0.0,1.0,87,0.00,,,0.00,weatherlink.com 1.10,2013-01-26 13:19:00,
2013-01-26 08:34:00,13.6,11.0,30.16,WSW,257,0.0,2.0,88,0.00,,,0.00,weatherlink.com 1.10,2013-01-26 13:34:00,
2013-01-26 08:49:00,14.8,12.0,30.16,SSW,211,2.0,5.0,89,0.00,,,0.00,weatherlink.com 1.10,2013-01-26 13:49:00,
2013-01-26 09:04:00,15.0,12.0,30.17,WSW,242,2.0,6.0,86,0.00,,,0.00,weatherlink.com 1.10,2013-01-26 14:04:00,
2013-01-26 09:19:00,15.4,11.0,30.17,WSW,244,3.0,6.0,83,0.00,,,0.00,weatherlink.com 1.10,2013-01-26 14:19:00,
2013-01-26 09:34:00,16.1,11.0,30.18,SW,231,2.0,7.0,80,0.00,,,0.00,weatherlink.com 1.10,2013-01-26 14:34:00,
2013-01-26 09:49:00,17.0,11.0,30.18,North,351,6.0,10.0,77,0.00,,,0.00,weatherlink.com 1.10,2013-01-26 14:49:00,
2013-01-26 10:04:00,17.7,11.0,30.18,WSW,250,2.0,7.0,76,0.00,,,0.00,weatherlink.com 1.10,2013-01-26 15:04:00,
2013-01-26 10:19:00,18.6,11.0,30.18,North,351,1.0,8.0,71,0.00,,,0.00,weatherlink.com 1.10,2013-01-26 15:19:00,
2013-01-26 10:34:00,19.4,10.0,30.19,West,268,3.0,10.0,67,0.00,,,0.00,weatherlink.com 1.10,2013-01-26 15:34:00,
2013-01-26 10:49:00,20.3,9.0,30.19,NNW,341,3.0,13.0,63,0.00,,,0.00,weatherlink.com 1.10,2013-01-26 15:49:00,
2013-01-26 11:04:00,20.3,10.0,30.20,WNW,300,7.0,13.0,65,0.00,,,0.00,weatherlink.com 1.10,2013-01-26 16:04:00,
2013-01-26 11:19:00,20.4,8.0,30.20,NNW,347,6.0,14.0,59,0.00,,,0.00,weatherlink.com 1.10,2013-01-26 16:19:00,
2013-01-26 11:34:00,20.7,9.0,30.20,WNW,302,2.0,10.0,62,0.00,,,0.00,weatherlink.com 1.10,2013-01-26 16:34:00,
2013-01-26 11:49:00,21.1,9.0,30.19,NW,317,7.0,12.0,59,0.00,,,0.00,weatherlink.com 1.10,2013-01-26 16:49:00,
2013-01-26 12:04:00,22.4,10.0,30.18,North,355,2.0,11.0,59,0.00,,,0.00,weatherlink.com 1.10,2013-01-26 17:04:00,
2013-01-26 12:19:00,23.0,9.0,30.17,NNW,339,6.0,10.0,55,0.00,,,0.00,weatherlink.com 1.10,2013-01-26 17:19:00,
2013-01-26 12:34:00,23.1,9.0,30.16,North,5,4.0,16.0,55,0.00,,,0.00,weatherlink.com 1.10,2013-01-26 17:34:00,
2013-01-26 12:49:00,23.7,10.0,30.16,West,265,3.0,10.0,55,0.00,,,0.00,weatherlink.com 1.10,2013-01-26 17:49:00,
2013-01-26 13:04:00,24.2,10.0,30.17,West,270,5.0,9.0,54,0.00,,,0.00,weatherlink.com 1.10,2013-01-26 18:04:00,
2013-01-26 13:20:00,24.7,9.0,30.16,NNW,338,4.0,12.0,51,0.00,,,0.00,weatherlink.com 1.10,2013-01-26 18:20:00,
2013-01-26 13:35:00,25.0,9.0,30.16,West,261,7.0,14.0,50,0.00,,,0.00,weatherlink.com 1.10,2013-01-26 18:35:00,
2013-01-26 13:50:00,24.7,7.0,30.16,NNE,15,5.0,13.0,48,0.00,,,0.00,weatherlink.com 1.10,2013-01-26 18:50:00,
2013-01-26 14:05:00,25.6,9.0,30.17,NW,309,4.0,13.0,49,0.00,,,0.00,weatherlink.com 1.10,2013-01-26 19:05:00,
2013-01-26 14:20:00,26.2,9.0,30.17,West,267,6.0,10.0,48,0.00,,,0.00,weatherlink.com 1.10,2013-01-26 19:20:00,
2013-01-26 14:35:00,26.1,9.0,30.17,WNW,292,7.0,11.0,48,0.00,,,0.00,weatherlink.com 1.10,2013-01-26 19:35:00,
2013-01-26 14:50:00,26.5,9.0,30.18,NW,317,6.0,14.0,48,0.00,,,0.00,weatherlink.com 1.10,2013-01-26 19:50:00,
2013-01-26 15:05:00,26.1,8.0,30.19,WNW,302,10.0,23.0,46,0.00,,,0.00,weatherlink.com 1.10,2013-01-26 20:05:00,
2013-01-26 15:20:00,26.0,8.0,30.19,West,277,2.0,14.0,46,0.00,,,0.00,weatherlink.com 1.10,2013-01-26 20:20:00,
2013-01-26 15:35:00,26.0,8.0,30.20,West,274,6.0,14.0,47,0.00,,,0.00,weatherlink.com 1.10,2013-01-26 20:35:00,
2013-01-26 15:50:00,25.8,8.0,30.20,West,275,4.0,11.0,46,0.00,,,0.00,weatherlink.com 1.10,2013-01-26 20:50:00,
2013-01-26 16:05:00,25.9,8.0,30.21,WNW,298,8.0,15.0,46,0.00,,,0.00,weatherlink.com 1.10,2013-01-26 21:05:00,
2013-01-26 16:20:00,25.7,8.0,30.21,NNW,348,2.0,9.0,48,0.00,,,0.00,weatherlink.com 1.10,2013-01-26 21:20:00,
2013-01-26 16:35:00,24.9,7.0,30.21,NW,304,1.0,16.0,47,0.00,,,0.00,weatherlink.com 1.10,2013-01-26 21:35:00,
2013-01-26 16:50:00,24.3,8.0,30.23,NNW,330,4.0,12.0,49,0.00,,,0.00,weatherlink.com 1.10,2013-01-26 21:50:00,
2013-01-26 17:05:00,24.0,8.0,30.24,West,271,3.0,10.0,50,0.00,,,0.00,weatherlink.com 1.10,2013-01-26 22:05:00,
2013-01-26 17:20:00,23.2,7.0,30.24,SW,236,3.0,10.0,51,0.00,,,0.00,weatherlink.com 1.10,2013-01-26 22:20:00,
2013-01-26 17:35:00,22.7,7.0,30.25,North,350,2.0,8.0,52,0.00,,,0.00,weatherlink.com 1.10,2013-01-26 22:35:00,
2013-01-26 17:50:00,22.5,8.0,30.27,NW,319,3.0,7.0,53,0.00,,,0.00,weatherlink.com 1.10,2013-01-26 22:50:00,
2013-01-26 18:05:00,22.1,8.0,30.27,NNW,342,6.0,9.0,54,0.00,,,0.00,weatherlink.com 1.10,2013-01-26 23:05:00,
2013-01-26 18:20:00,21.9,7.0,30.27,NNW,328,3.0,8.0,54,0.00,,,0.00,weatherlink.com 1.10,2013-01-26 23:20:00,
2013-01-26 18:35:00,21.6,7.0,30.29,West,275,2.0,8.0,54,0.00,,,0.00,weatherlink.com 1.10,2013-01-26 23:35:00,
2013-01-26 18:50:00,21.5,8.0,30.29,North,349,1.0,6.0,55,0.00,,,0.00,weatherlink.com 1.10,2013-01-26 23:50:00,
2013-01-26 19:05:00,21.2,7.0,30.29,NW,306,0.0,7.0,55,0.00,,,0.00,weatherlink.com 1.10,2013-01-27 00:05:00,
2013-01-26 19:20:00,20.9,8.0,30.30,WSW,257,3.0,5.0,57,0.00,,,0.00,weatherlink.com 1.10,2013-01-27 00:20:00,
2013-01-26 19:35:00,20.5,8.0,30.30,NW,309,0.0,4.0,58,0.00,,,0.00,weatherlink.com 1.10,2013-01-27 00:35:00,
2013-01-26 19:50:00,20.2,7.0,30.31,NW,307,0.0,4.0,58,0.00,,,0.00,weatherlink.com 1.10,2013-01-27 00:50:00,
2013-01-26 20:05:00,19.9,8.0,30.31,WSW,242,0.0,3.0,59,0.00,,,0.00,weatherlink.com 1.10,2013-01-27 01:05:00,
2013-01-26 20:20:00,19.6,7.0,30.32,WSW,251,2.0,4.0,58,0.00,,,0.00,weatherlink.com 1.10,2013-01-27 01:20:00,
2013-01-26 20:35:00,19.2,7.0,30.32,SW,225,1.0,4.0,59,0.00,,,0.00,weatherlink.com 1.10,2013-01-27 01:35:00,
2013-01-26 20:50:00,18.9,7.0,30.33,SW,223,0.0,2.0,60,0.00,,,0.00,weatherlink.com 1.10,2013-01-27 01:50:00,
2013-01-26 21:05:00,18.5,7.0,30.33,South,173,2.0,4.0,61,0.00,,,0.00,weatherlink.com 1.10,2013-01-27 02:05:00,
2013-01-26 21:20:00,18.3,8.0,30.34,South,185,0.0,2.0,64,0.00,,,0.00,weatherlink.com 1.10,2013-01-27 02:20:00,
2013-01-26 21:35:00,18.0,7.0,30.34,SSW,194,0.0,4.0,62,0.00,,,0.00,weatherlink.com 1.10,2013-01-27 02:35:00,
2013-01-26 21:50:00,17.8,7.0,30.35,SSW,194,0.0,2.0,64,0.00,,,0.00,weatherlink.com 1.10,2013-01-27 02:50:00,
2013-01-26 22:05:00,17.4,7.0,30.36,SSW,202,0.0,3.0,64,0.00,,,0.00,weatherlink.com 1.10,2013-01-27 03:05:00,
2013-01-26 22:20:00,17.2,8.0,30.37,SSW,206,0.0,1.0,66,0.00,,,0.00,weatherlink.com 1.10,2013-01-27 03:20:00,
2013-01-26 22:36:00,16.9,7.0,30.37,SSW,203,0.0,2.0,66,0.00,,,0.00,weatherlink.com 1.10,2013-01-27 03:36:00,
2013-01-26 22:50:00,16.7,7.0,30.37,SSW,203,0.0,1.0,66,0.00,,,0.00,weatherlink.com 1.10,2013-01-27 03:50:00,
2013-01-26 23:06:00,16.1,7.0,30.38,SSW,197,0.0,1.0,67,0.00,,,0.00,weatherlink.com 1.10,2013-01-27 04:06:00,
2013-01-26 23:21:00,15.8,7.0,30.38,SSW,197,1.0,1.0,68,0.00,,,0.00,weatherlink.com 1.10,2013-01-27 04:21:00,
2013-01-26 23:36:00,15.6,7.0,30.39,SSW,197,0.0,0.0,69,0.00,,,0.00,weatherlink.com 1.10,2013-01-27 04:36:00,
2013-01-26 23:51:00,15.6,7.0,30.39,ENE,67,1.0,2.0,69,0.00,,,0.00,weatherlink.com 1.10,2013-01-27 04:51:00,